Weather in Zikeyevo

Russia / Kaluga Oblast     53°44′00″N   34°52′05″E
temp.,
°C
wind,
m/s
gust,
m/s
humid.,
%
clouds,
%
prec.,
mm/h
press.,
hPa
HPBL,
m
22 october, fri
fri2200:00+11ssw71664100 0.0 998636
03:00+10sw7156896 0.0 998637
06:00+11sw71477100 0.0 998946
09:00+11wsw7147749 0.1 10001137
12:00+12wsw8156333 0.1 10021717
15:00+11wsw815644 0.3 10031685
18:00+9wsw612645 0.1 1005871
21:00+7wsw512696 0.1 1007665
23 october, sat
sat2300:00+6sw51368100 0.0 1007703
03:00+6sw6136998 0.0 1007860
06:00+5sw614715 0.0 1006580
09:00+5wsw6126759 0.0 1006950
12:00+7wsw697099 0.0 10081122
15:00+5wsw51087100 1.6 1009723
18:00+6w610725 0.1 1010947
21:00+4wsw4117593 0.1 1012424
24 october, sun
sun2400:00+5wsw51279100 0.0 1012757
03:00+5wsw6118198 0.1 1013958
06:00+5w6118186 0.1 1013985
09:00+3wnw5987100 0.3 1016924
12:00+4wnw697598 0.3 10171036
15:00+3nw61082100 0.8 1018952
18:00+3nnw6117483 0.3 10211143
21:00+1nnw5128123 0.3 1023840
25 october, mon
mon2500:000nnw511868 0.0 1026550
03:00−1nnw410906 0.0 1028434
06:00−2nnw389212 0.0 1030344
09:00−1nnw368421 0.0 1032310
12:00+3nnw235638 0.0 1032723
15:00+3wnw235286 0.0 1032789
18:000sw22725 0.0 103222
21:00−1sw36755 0.0 1033113
26 october, tue
tue2600:00−1sw38785 0.0 1032194
03:00−1sw310785 0.0 1032250
06:00−1sw4117615 0.0 1031282
09:000sw41267100 0.0 1031379
12:00+4sw51051100 0.0 1029542
15:00+5ssw51254100 0.0 1027627
18:00+3ssw51462100 0.0 1026477
21:00+2sw51565100 0.0 1025488